This demonstration page uses our WeatherBlox Daily Observations layout. Learn more.

Left ArrowRight Arrow

Hourly Observations for June 23, 2021

Temp ( °F °C ) Dew Point ( °F °C ) Humidity (%) Winds ( mph kmh ) Pressure ( in mb ) Visibility ( mi km ) Precip ( " mm )
12:53 am 00:53 Clear 82 27.8 65 18.3 56 56 SSE 18 30 29.80 1009 10 16 0.00 0.00
1:53 am 01:53 Clear 81 27.2 64 17.8 57 57 SSE 22 35 29.78 1009 10 16 0.00 0.00
2:53 am 02:53 Clear 79 26.1 65 18.3 62 62 SSE 14 22 29.76 1008 10 16 0.00 0.00
3:53 am 03:53 Clear 78 25.6 65 18.3 64 64 SE 14 22 29.75 1007 10 16 0.00 0.00
4:53 am 04:53 Clear 77 25 66 18.9 69 69 SE 15 24 29.74 1007 10 16 0.00 0.00
5:53 am 05:53 Clear 76 24.4 66 18.9 72 72 SE 16 26 29.75 1007 9 14 0.00 0.00
6:53 am 06:53 Sunny 75 23.9 67 19.4 76 76 SE 15 24 29.75 1008 9 14 0.00 0.00
7:53 am 07:53 Sunny 76 24.4 67 19.4 74 74 SE 15 24 29.77 1008 8 13 0.00 0.00
8:53 am 08:53 Sunny 78 25.6 67 19.4 69 69 SE 17 28 29.78 1009 10 16 0.00 0.00
9:53 am 09:53 Sunny 82 27.8 67 19.4 60 60 SE 15 24 29.79 1009 10 16 0.00 0.00
10:53 am 10:53 Sunny 87 30.6 66 18.9 50 50 SSE 15 24 29.78 1009 10 16 0.00 0.00
11:53 am 11:53 Sunny 92 33.3 65 18.3 41 41 SSE 14 22 29.78 1008 10 16 0.00 0.00
12:53 pm 12:53 Sunny 96 35.6 63 17.2 34 34 SSE 15 24 29.77 1008 10 16 0.00 0.00
1:53 pm 13:53 Sunny 99 37.2 61 16.1 29 29 S 16 26 29.75 1008 10 16 0.00 0.00
2:53 pm 14:53 Sunny 102 38.9 61 16.1 26 26 SSE 16 26 29.73 1007 10 16 0.00 0.00
3:53 pm 15:53 Sunny 102 38.9 60 15.6 25 25 SSE 13 20 29.72 1006 10 16 0.00 0.00
4:53 pm 16:53 Sunny 103 39.4 60 15.6 24 24 S 13 20 29.71 1006 10 16 0.00 0.00
5:53 pm 17:53 Sunny 102 38.9 58 14.4 23 23 SSE 16 26 29.70 1006 10 16 0.00 0.00
6:53 pm 18:53 Sunny 100 37.8 58 14.4 25 25 SSE 22 35 29.69 1006 10 16 0.00 0.00
7:53 pm 19:53 Sunny 98 36.7 58 14.4 26 26 SE 17 28 29.70 1006 10 16 0.00 0.00
8:53 pm 20:53 Sunny 94 34.4 59 15 31 31 SSE 17 28 29.72 1007 10 16 0.00 0.00
9:53 pm 21:53 Clear 91 32.8 61 16.1 37 37 SSE 16 26 29.75 1008 10 16 0.00 0.00
10:53 pm 22:53 Clear 87 30.6 61 16.1 42 42 SE 16 26 29.78 1008 10 16 0.00 0.00
11:53 pm 23:53 Clear 84 28.9 63 17.2 49 49 SE 17 28 29.80 1009 10 16 0.00 0.00

Powered by AerisWeather